Content
SEND FEEDBACK

Daily
Averages
Monthly
Summary
United States of America

BELLEVILLE, MICHIGAN


Home > North America > United States > Michigan
Elevation: 780 feet     Latitude: 42 14N     Longitude: 083 32W

WEATHER
 
SELECT A DAY
Number of Records: 205,724;   Date Range: 1/1/95 - 10/21/14
 
SHARE

PRINT THIS DATA

[ ← Previous Day ]
WEATHER ALMANAC - MAY 14, 2013
[ Next Day → ]
[ °C ]   °F
Weather ElementAverageHighLow
Temperature61.8 °F80.1 °F (4:53 pm)45 °F (1:53 am)
Dewpoint40.7 °F54 °F (7:53 pm)30 °F (2:53 am)
Humidity47.6 %64 % (11:53 pm)31 % (3:53 pm)
Barometer29.89 in30.09 in (1:53 am)29.73 in (11:53 pm)
Wind Speed8.7 mph16.1 mph (1:53 pm)
Wind Gust21.9 mph (1:53 pm)
Weather ElementAverage
Visibility10 mi
Wind DirectionSE (137.8 °)

Weather ElementTotal
Precipitation---
Heating Degree Days2.5 (Base 65)
Growing Degree Days12.6 (Base 50)
Averaged from 23 records on May 14, 2013
WEATHER CONDITIONS BREAKOUT
WIND DIRECTION BREAKOUT
WEATHER BY HOUR - MAY 14, 2013
[ °C ]   °F
Local TimeTemperatureDewpointHumidityBarometerVisibilityWind DirectionWind SpeedGust SpeedPrecipitationEventsConditions
1:53 AM45.0 °F30.9 °F58 %30.09 in10.0 miSouth (180°)8.1 mphClear
2:53 AM45.0 °F30.0 °F56 %30.09 in10.0 miSouth (190°)8.1 mphPartly Cloudy
3:53 AM46.0 °F30.9 °F56 %30.07 in10.0 miSSW (200°)4.6 mphMostly Cloudy
4:53 AM46.0 °F32.0 °F58 %30.07 in10.0 miCalmOvercast
5:53 AM46.0 °F33.1 °F61 %30.06 in10.0 miSouth (170°)3.5 mphOvercast
6:53 AM46.0 °F34.0 °F63 %30.04 in10.0 miSSE (160°)4.6 mphOvercast
7:53 AM50.0 °F33.1 °F52 %30.01 in10.0 miSE (130°)8.1 mphMostly Cloudy
8:53 AM55.9 °F35.1 °F45 %30.00 in10.0 miSouth (180°)12.7 mphMostly Cloudy
9:53 AM57.0 °F35.1 °F44 %29.97 in10.0 miSouth (180°)13.8 mphOvercast
10:53 AM60.1 °F36.0 °F41 %29.93 in10.0 miSouth (170°)12.7 mphOvercast
11:53 AM68.0 °F39.0 °F35 %29.90 in10.0 miSSE (160°)13.8 mphMostly Cloudy
12:53 PM69.1 °F39.9 °F35 %29.88 in10.0 miSouth (170°)15.0 mph18.4 mphMostly Cloudy
1:53 PM75.0 °F43.0 °F32 %29.85 in10.0 miSSW (200°)16.1 mph21.9 mphMostly Cloudy
2:53 PM77.0 °F45.0 °F32 %29.81 in10.0 miSouth (190°)16.1 mph19.6 mphScattered Clouds
3:53 PM79.0 °F46.0 °F31 %29.79 in10.0 miSSW (210°)16.1 mphMostly Cloudy
4:53 PM80.1 °F46.9 °F31 %29.77 in10.0 miVariable3.5 mphScattered Clouds
5:53 PM78.1 °F48.9 °F36 %29.77 in10.0 miWSW (240°)8.1 mphClear
6:53 PM75.0 °F52.0 °F44 %29.75 in10.0 miESE (110°)5.8 mphClear
7:53 PM72.0 °F54.0 °F53 %29.74 in10.0 miENE (60°)6.9 mphClear
8:53 PM66.0 °F48.9 °F54 %29.75 in10.0 miENE (70°)6.9 mphClear
9:53 PM63.0 °F46.9 °F56 %29.74 in10.0 miNE (50°)6.9 mphClear
10:53 PM62.1 °F46.9 °F58 %29.74 in10.0 miNE (40°)5.8 mphPartly Cloudy
11:53 PM60.1 °F48.0 °F64 %29.73 in10.0 miESE (110°)3.5 mph0.00 inRainLight Rain
Hourly data recorded from KYIP, located miles away from Belleville, Michigan







STORIES FROM OUR PARTNERS